Regional Weather Roundup
Issued by NWS

Home | Current Version | Previous Version | Text Only | Print | Product List | Glossary On
Versions: 1 2 3 4 5 6 7 8 9 10 11 12 13 14 15 16 17 18 19 20 21 22 23 24 25 26 27 28 29 30 31 32 33 34 35 36 37 38 39 40 41 42 43 44 45 46 47 48 49 50
000
ASUS44 KJAN 092203
RWRMS

MISSISSIPPI HOURLY WEATHER ROUNDUP
NATIONAL WEATHER SERVICE JACKSON MS
400 PM CST TUE FEB 09 2016

NOTE: "FAIR: INDICATES FEW OR NO CLOUDS BELOW 12,000 FEET WITH NO
SIGNIFICANT WEATHER AND/OR OBSTRUCTIONS TO VISIBILITY.

MSZ001>002-007>008-010>013-018>021-025>028-034>036-092300-
NORTHWEST MISSISSIPPI

CITY           SKY/WX    TMP DP  RH WIND       PRES   REMARKS
CLEVELAND      FAIR      47  20  33 NW23      30.05R
GREENWOOD      SUNNY     48  14  25 NW16G31   30.05R
GREENVILLE     SUNNY     51  17  26 NW23G29   30.05R
OLIVE BRANCH   MOSUNNY   34  14  44 NW18G24   30.06R WCI  23
OXFORD         FAIR      39  12  33 NW17G28   30.05R WCI  30
TUNICA         CLEAR     37  18  44 N18G25    30.08R WCI  27
$$

MSZ003>006-009-014>017-022>024-029>033-037>039-092300-
NORTHEAST MISSISSIPPI

CITY           SKY/WX    TMP DP  RH WIND       PRES   REMARKS
COLUMBUS AFB   MOSUNNY   42  16  35 NW20G32   30.01R
CORINTH        MOCLDY    34  12  40 NW14G20   30.04R WCI  24
GOLDN TRIANGLE PTSUNNY   43  18  36 NW13G21   30.00R
STARKVILLE     FAIR      45  18  33 NW8G24    30.01R
TUPELO         SUNNY     40  10  29 NW17G25   30.03R WCI  31
$$

MSZ040-058-092300-
CENTRAL MISSISSIPPI

CITY           SKY/WX    TMP DP  RH WIND       PRES   REMARKS
JACKSON INTL   MOSUNNY   52  14  22 NW21G31   30.03R
JACKSON HAWKNS SUNNY     51  13  21 NW17G29   30.04R
MERIDIAN KEY   SUNNY     49  16  26 NW15G26   30.01R
MERIDIAN NAS   MOSUNNY   47  15  27 NW21G35   30.01R
VICKSBURG      SUNNY     56  17  21 NW15G25   30.07R
$$

MSZ059>079-092300-
SOUTH MISSISSIPPI

CITY           SKY/WX    TMP DP  RH WIND       PRES   REMARKS
BROOKHAVEN     FAIR      54  19  26 W10G18    30.06R
HATTIESBURG    SUNNY     54  14  20 NW22G33   30.03R
MCCOMB         SUNNY     54  17  23 NW15G32   30.05R
NATCHEZ        SUNNY     54  18  24 NW22G30   30.09R
PINE BELT      SUNNY     52  16  24 W14G23    30.04R
$$

MSZ080>082-092300-
COASTAL MISSISSIPPI

CITY           SKY/WX    TMP DP  RH WIND       PRES   REMARKS
BAY ST LOUIS   SUNNY     55   0  10 NW12G24   30.04R
BILOXI         SUNNY     57  19  22 NW18G25   30.01S
PASCAGOULA     SUNNY     56  14  19 NW13G21   30.01R
GULFPORT       SUNNY     56  13  18 W18G28    30.02R
$$



USA.gov is the U.S. government's official web portal to all federal, state and local government web resources and services.